| time (UTC) | temp F | wind direction | speed MPH | gust MPH | rain 1hr in | rain 24hr in | rain mn in | humidity % | barometer mb |
| 20260903081804 | 73 | 123 | 0.0 | 3.0 | 0.00 | 0.39 | 0.06 | 99 | 1018.1 |
| 20260903080304 | 73 | 84 | 0.0 | 2.0 | 0.00 | 0.39 | 0.06 | 99 | 1018.1 |
| 20260903075806 | 73 | 84 | 1.0 | 2.0 | 0.00 | 0.39 | 0.06 | 99 | 1018.2 |
| 20260903074805 | 73 | 84 | 0.0 | 3.0 | 0.00 | 0.39 | 0.06 | 99 | 1018.3 |
| 20260903073804 | 73 | 84 | 1.0 | 3.0 | 0.00 | 0.39 | 0.06 | 99 | 1018.1 |
| 20260903072804 | 72 | 83 | 0.0 | 3.0 | 0.00 | 0.39 | 0.06 | 99 | 1018.0 |
| 20260903071804 | 72 | 66 | 2.0 | 3.0 | 0.00 | 0.39 | 0.06 | 99 | 1017.9 |
| 20260903071305 | 72 | 47 | 0.0 | 3.0 | 0.00 | 0.39 | 0.06 | 99 | 1018.0 |
| 20260903070805 | 72 | 47 | 1.0 | 3.0 | 0.00 | 0.39 | 0.06 | 99 | 1018.0 |
| 20260903065306 | 72 | 40 | 1.0 | 2.0 | 0.00 | 0.39 | 0.06 | 99 | 1017.9 |
| 20260903064806 | 72 | 38 | 0.0 | 3.0 | 0.00 | 0.39 | 0.06 | 99 | 1018.1 |
| 20260903063304 | 71 | 114 | 0.0 | 3.0 | 0.00 | 0.39 | 0.06 | 99 | 1018.2 |
| 20260903062806 | 71 | 140 | 1.0 | 2.0 | 0.00 | 0.39 | 0.06 | 99 | 1018.0 |
| 20260903062306 | 71 | 140 | 1.0 | 2.0 | 0.00 | 0.39 | 0.06 | 99 | 1017.7 |
| 20260903060804 | 71 | 140 | 0.0 | 0.0 | 0.00 | 0.39 | 0.06 | 98 | 1017.7 |
| 20260903060304 | 71 | 140 | 0.0 | 0.0 | 0.00 | 0.39 | 0.06 | 98 | 1017.8 |
| 20260903055804 | 71 | 140 | 0.0 | 0.0 | 0.00 | 0.39 | 0.06 | 98 | 1017.9 |
| 20260903053805 | 71 | 140 | 0.0 | 0.0 | 0.00 | 0.39 | 0.06 | 98 | 1017.9 |
| 20260903045804 | 71 | 140 | 0.0 | 0.0 | 0.06 | 0.39 | 0.06 | 98 | 1018.2 |
| 20260903045306 | 71 | 140 | 0.0 | 1.0 | 0.06 | 0.39 | 0.06 | 98 | 1018.2 |
| 20260903044804 | 71 | 140 | 0.0 | 1.0 | 0.06 | 0.39 | 0.06 | 98 | 1018.3 |
| 20260903044305 | 71 | 140 | 0.0 | 1.0 | 0.06 | 0.39 | 0.06 | 98 | 1018.4 |
| 20260903043804 | 71 | 140 | 0.0 | 1.0 | 0.06 | 0.39 | 0.06 | 98 | 1018.3 |
| 20260903042805 | 71 | 140 | 0.0 | 1.0 | 0.06 | 0.39 | 0.06 | 98 | 1018.4 |
| 20260903040305 | 71 | 140 | 0.0 | 2.0 | 0.00 | 0.33 | 0.00 | 98 | 1018.7 |
| 20260903035306 | 71 | 139 | 0.0 | 0.0 | 0.00 | 0.33 | 0.33 | 98 | 1018.6 |
| 20260903034804 | 71 | 139 | 0.0 | 0.0 | 0.00 | 0.33 | 0.33 | 98 | 1018.7 |
| 20260903034304 | 71 | 139 | 0.0 | 0.0 | 0.00 | 0.33 | 0.33 | 98 | 1018.9 |
| 20260903033805 | 71 | 139 | 0.0 | 0.0 | 0.00 | 0.33 | 0.33 | 98 | 1019.0 |
| 20260903033304 | 71 | 139 | 0.0 | 0.0 | 0.00 | 0.33 | 0.33 | 98 | 1018.9 |
| 20260903032805 | 70 | 139 | 0.0 | 0.0 | 0.00 | 0.33 | 0.33 | 98 | 1019.0 |
| 20260903031804 | 70 | 139 | 0.0 | 0.0 | 0.00 | 0.33 | 0.33 | 98 | 1019.0 |
| 20260903031305 | 70 | 139 | 0.0 | 0.0 | 0.00 | 0.33 | 0.33 | 98 | 1018.8 |
| 20260903030804 | 70 | 139 | 0.0 | 0.0 | 0.00 | 0.33 | 0.33 | 98 | 1018.8 |
| 20260903024305 | 71 | 139 | 1.0 | 3.0 | 0.00 | 0.33 | 0.33 | 98 | 1018.7 |
| 20260903023804 | 71 | 139 | 1.0 | 3.0 | 0.00 | 0.33 | 0.33 | 98 | 1018.5 |
| 20260903023304 | 71 | 139 | 0.0 | 0.0 | 0.00 | 0.33 | 0.33 | 98 | 1018.7 |
| 20260903022805 | 71 | 139 | 0.0 | 0.0 | 0.00 | 0.33 | 0.33 | 98 | 1018.9 |
| 20260903022306 | 71 | 139 | 0.0 | 0.0 | 0.00 | 0.33 | 0.33 | 98 | 1018.8 |
| 20260903021804 | 71 | 139 | 0.0 | 0.0 | 0.00 | 0.33 | 0.33 | 98 | 1019.0 |
| 20260903021304 | 71 | 139 | 0.0 | 0.0 | 0.00 | 0.33 | 0.33 | 97 | 1019.1 |
| 20260903015806 | 71 | 139 | 0.0 | 0.0 | 0.00 | 0.33 | 0.33 | 97 | 1019.0 |
| 20260903014804 | 71 | 139 | 0.0 | 0.0 | 0.00 | 0.33 | 0.33 | 97 | 1018.8 |
| 20260903014304 | 71 | 139 | 0.0 | 0.0 | 0.00 | 0.33 | 0.33 | 97 | 1018.8 |
| 20260903013805 | 71 | 139 | 0.0 | 0.0 | 0.00 | 0.33 | 0.33 | 97 | 1018.9 |
| 20260903013305 | 71 | 139 | 0.0 | 0.0 | 0.00 | 0.33 | 0.33 | 97 | 1018.7 |
| 20260903011804 | 71 | 139 | 0.0 | 0.0 | 0.00 | 0.33 | 0.33 | 97 | 1018.4 |
| 20260903011304 | 72 | 139 | 0.0 | 0.0 | 0.00 | 0.33 | 0.33 | 97 | 1018.4 |
| 20260903010804 | 72 | 139 | 0.0 | 0.0 | 0.00 | 0.33 | 0.33 | 97 | 1018.6 |
| 20260903005804 | 72 | 139 | 0.0 | 0.0 | 0.00 | 0.33 | 0.33 | 97 | 1018.3 |
| 20260903005306 | 72 | 140 | 0.0 | 0.0 | 0.00 | 0.33 | 0.33 | 97 | 1018.6 |
| 20260903004304 | 72 | 148 | 0.0 | 0.0 | 0.00 | 0.33 | 0.33 | 97 | 1018.2 |
| 20260903002804 | 72 | 148 | 0.0 | 0.0 | 0.00 | 0.33 | 0.33 | 96 | 1018.6 |
| 20260903000304 | 73 | 151 | 1.0 | 3.0 | 0.00 | 0.33 | 0.33 | 95 | 1018.6 |
| 20260902235805 | 73 | 152 | 0.0 | 3.0 | 0.00 | 0.33 | 0.33 | 95 | 1018.8 |
| 20260902235306 | 73 | 152 | 1.0 | 3.0 | 0.00 | 0.33 | 0.33 | 95 | 1018.6 |
| 20260902234804 | 73 | 124 | 1.0 | 3.0 | 0.00 | 0.33 | 0.33 | 95 | 1018.5 |
| 20260902232805 | 73 | 150 | 0.0 | 2.0 | 0.00 | 0.33 | 0.33 | 95 | 1018.7 |
| 20260902231804 | 74 | 150 | 1.0 | 2.0 | 0.00 | 0.33 | 0.33 | 94 | 1018.6 |
| 20260902230304 | 74 | 160 | 0.0 | 5.0 | 0.00 | 0.33 | 0.33 | 94 | 1018.7 |
| 20260902225804 | 74 | 161 | 0.0 | 5.0 | 0.00 | 0.33 | 0.33 | 94 | 1018.6 |
| 20260902224304 | 74 | 142 | 1.0 | 3.0 | 0.00 | 0.33 | 0.33 | 94 | 1018.5 |
| 20260902222804 | 74 | 142 | 1.0 | 3.0 | 0.00 | 0.33 | 0.33 | 94 | 1018.5 |
| 20260902222306 | 75 | 164 | 1.0 | 3.0 | 0.00 | 0.33 | 0.33 | 93 | 1018.6 |
| 20260902221804 | 74 | 163 | 1.0 | 5.0 | 0.00 | 0.33 | 0.33 | 94 | 1018.6 |
| 20260902221305 | 75 | 150 | 2.0 | 6.0 | 0.00 | 0.33 | 0.33 | 94 | 1018.6 |
| 20260902214805 | 74 | 146 | 2.0 | 5.0 | 0.00 | 0.33 | 0.33 | 94 | 1018.9 |
| 20260902211804 | 74 | 94 | 0.0 | 2.0 | 0.00 | 0.33 | 0.33 | 94 | 1018.7 |
| 20260902205803 | 74 | 94 | 1.0 | 3.0 | 0.00 | 0.33 | 0.33 | 95 | 1019.0 |
| 20260902205306 | 74 | 94 | 0.0 | 3.0 | 0.00 | 0.33 | 0.33 | 94 | 1019.0 |
| 20260902204804 | 74 | 94 | 0.0 | 2.0 | 0.00 | 0.33 | 0.33 | 95 | 1019.1 |
| 20260902204305 | 74 | 94 | 0.0 | 3.0 | 0.00 | 0.33 | 0.33 | 95 | 1019.2 |
| 20260902203304 | 74 | 94 | 1.0 | 3.0 | 0.00 | 0.33 | 0.33 | 95 | 1019.3 |
| 20260902202306 | 74 | 110 | 1.0 | 3.0 | 0.00 | 0.33 | 0.33 | 95 | 1019.3 |
| 20260902201304 | 73 | 124 | 1.0 | 2.0 | 0.00 | 0.33 | 0.33 | 95 | 1019.2 |
| 20260902191804 | 72 | 291 | 2.0 | 3.0 | 0.02 | 0.33 | 0.33 | 96 | 1018.3 |
| 20260902191304 | 73 | 311 | 0.0 | 6.0 | 0.03 | 0.33 | 0.33 | 98 | 1018.1 |
| 20260902190804 | 72 | 309 | 2.0 | 6.0 | 0.03 | 0.33 | 0.33 | 97 | 1018.7 |
| 20260902190304 | 72 | 266 | 2.0 | 6.0 | 0.04 | 0.33 | 0.33 | 97 | 1018.9 |
| 20260902184304 | 71 | 200 | 0.0 | 2.0 | 0.06 | 0.33 | 0.33 | 97 | 1019.0 |
| 20260902182804 | 70 | 43 | 0.0 | 3.0 | 0.06 | 0.32 | 0.32 | 97 | 1018.7 |
| 20260902182306 | 70 | 52 | 1.0 | 5.0 | 0.06 | 0.32 | 0.32 | 97 | 1018.8 |
| 20260902181804 | 70 | 94 | 0.0 | 5.0 | 0.05 | 0.31 | 0.31 | 96 | 1019.2 |
| 20260902180305 | 70 | 224 | 1.0 | 3.0 | 0.04 | 0.29 | 0.29 | 96 | 1020.7 |
| 20260902174806 | 70 | 257 | 0.0 | 2.0 | 0.27 | 0.27 | 0.27 | 96 | 1021.1 |
| 20260902172308 | 70 | 257 | 2.0 | 6.0 | 0.26 | 0.26 | 0.26 | 94 | 1021.3 |
| 20260902171304 | 70 | 317 | 0.0 | 5.0 | 0.26 | 0.26 | 0.26 | 94 | 1021.3 |
| 20260902165804 | 74 | 6 | 10.0 | 30.0 | 0.18 | 0.18 | 0.18 | 89 | 1022.8 |
| 20260902164804 | 77 | 68 | 0.0 | 3.0 | 0.00 | 0.00 | 0.00 | 87 | 1020.8 |
| 20260902163804 | 78 | 68 | 3.0 | 5.0 | 0.00 | 0.00 | 0.00 | 85 | 1020.6 |
| 20260902161804 | 78 | 152 | 1.0 | 6.0 | 0.00 | 0.00 | 0.00 | 86 | 1020.2 |
| 20260902160805 | 78 | 36 | 2.0 | 7.0 | 0.00 | 0.00 | 0.00 | 87 | 1020.3 |
| 20260902160304 | 78 | 19 | 2.0 | 7.0 | 0.00 | 0.00 | 0.00 | 88 | 1020.1 |
| 20260902155804 | 77 | 79 | 3.0 | 7.0 | 0.00 | 0.00 | 0.00 | 88 | 1020.0 |
| 20260902153804 | 78 | 83 | 2.0 | 7.0 | 0.00 | 0.00 | 0.00 | 87 | 1019.8 |
| 20260902151804 | 78 | 154 | 2.0 | 7.0 | 0.00 | 0.00 | 0.00 | 87 | 1019.8 |
| 20260902151304 | 78 | 118 | 3.0 | 6.0 | 0.00 | 0.00 | 0.00 | 86 | 1019.8 |
| 20260902150303 | 78 | 148 | 1.0 | 7.0 | 0.00 | 0.00 | 0.00 | 88 | 1019.9 |
| 20260902145306 | 77 | 80 | 2.0 | 8.0 | 0.00 | 0.00 | 0.00 | 89 | 1019.9 |
| 20260902144804 | 76 | 70 | 2.0 | 8.0 | 0.00 | 0.00 | 0.00 | 89 | 1020.0 |
| 20260902143804 | 76 | 99 | 1.0 | 5.0 | 0.00 | 0.00 | 0.00 | 90 | 1020.1 |
| 20260902143304 | 76 | 133 | 1.0 | 5.0 | 0.00 | 0.00 | 0.00 | 90 | 1020.1 |
| 20260902142804 | 75 | 46 | 2.0 | 6.0 | 0.00 | 0.00 | 0.00 | 91 | 1020.2 |
| 20260902142306 | 75 | 96 | 1.0 | 8.0 | 0.00 | 0.00 | 0.00 | 92 | 1020.2 |
| 20260902141804 | 75 | 65 | 0.0 | 8.0 | 0.00 | 0.00 | 0.00 | 91 | 1020.2 |
| 20260902135804 | 75 | 24 | 0.0 | 7.0 | 0.00 | 0.00 | 0.00 | 91 | 1020.1 |
| 20260902134804 | 75 | 165 | 1.0 | 6.0 | 0.00 | 0.00 | 0.00 | 91 | 1019.8 |
| 20260902133804 | 75 | 106 | 3.0 | 7.0 | 0.00 | 0.00 | 0.00 | 92 | 1019.6 |
| 20260902132804 | 74 | 89 | 3.0 | 7.0 | 0.00 | 0.00 | 0.00 | 93 | 1019.5 |
| 20260902131303 | 74 | 69 | 3.0 | 10.0 | 0.00 | 0.00 | 0.00 | 95 | 1019.6 |
| 20260902130304 | 73 | 46 | 2.0 | 5.0 | 0.00 | 0.00 | 0.00 | 96 | 1019.5 |
| 20260902124804 | 73 | 48 | 3.0 | 5.0 | 0.00 | 0.00 | 0.00 | 96 | 1019.5 |
| 20260902122305 | 73 | 61 | 1.0 | 3.0 | 0.00 | 0.00 | 0.00 | 96 | 1019.4 |
| 20260902121304 | 72 | 55 | 1.0 | 5.0 | 0.00 | 0.00 | 0.00 | 96 | 1019.3 |
| 20260902115803 | 72 | 24 | 2.0 | 3.0 | 0.00 | 0.00 | 0.00 | 97 | 1019.2 |
| 20260902114305 | 72 | 61 | 3.0 | 5.0 | 0.00 | 0.00 | 0.00 | 98 | 1019.1 |
| 20260902113804 | 72 | 65 | 1.0 | 2.0 | 0.00 | 0.00 | 0.00 | 98 | 1019.0 |
| 20260902112805 | 71 | 65 | 1.0 | 3.0 | 0.00 | 0.00 | 0.00 | 98 | 1018.9 |
| 20260902111805 | 70 | 64 | 0.0 | 2.0 | 0.00 | 0.00 | 0.00 | 98 | 1018.9 |
| 20260902110303 | 70 | 64 | 0.0 | 0.0 | 0.00 | 0.00 | 0.00 | 97 | 1018.8 |
| 20260902105805 | 70 | 64 | 0.0 | 0.0 | 0.00 | 0.00 | 0.00 | 98 | 1018.9 |
| 20260902103303 | 70 | 64 | 0.0 | 0.0 | 0.00 | 0.00 | 0.00 | 97 | 1018.8 |
| 20260902101304 | 70 | 64 | 0.0 | 0.0 | 0.00 | 0.00 | 0.00 | 97 | 1018.6 |
| 20260902100304 | 70 | 64 | 0.0 | 0.0 | 0.00 | 0.00 | 0.00 | 97 | 1018.5 |
| 20260902095806 | 70 | 64 | 0.0 | 1.0 | 0.00 | 0.00 | 0.00 | 97 | 1018.5 |
| 20260902095307 | 70 | 64 | 0.0 | 1.0 | 0.00 | 0.00 | 0.00 | 97 | 1018.5 |
| 20260902093807 | 70 | 64 | 0.0 | 0.0 | 0.00 | 0.00 | 0.00 | 97 | 1018.5 |
| 20260902092805 | 70 | 64 | 0.0 | 1.0 | 0.00 | 0.00 | 0.00 | 97 | 1018.4 |
| 20260902092305 | 70 | 64 | 0.0 | 1.0 | 0.00 | 0.00 | 0.00 | 97 | 1018.6 |
| 20260902085805 | 71 | 64 | 0.0 | 0.0 | 0.00 | 0.00 | 0.00 | 97 | 1018.5 |
| 20260902084805 | 71 | 64 | 0.0 | 0.0 | 0.00 | 0.00 | 0.00 | 97 | 1018.4 |